Temp
18 18 17 18 22 24 24 24 23 23 23 22 21 21 23 22 23 23 16 17 16 15 15 16 17 17 17 17 17 18 17 17 16 16 16 16 17 17 14 15 15 14 13 13 14 14 13 14 13
17 17 17 21 23 24 25 24 23 24 23 21 20 20 21 23 20 19 16 16 15 15 14 14 15 15 16 17 17 17 17 16 16 16 16 15 16 16 15 14 15 14 14 14 14 15 15 14 13
17 17 21 23 23 24 24 24 24 23 22 21 22 20 21 22 17 17 15 15 15 14 14 14 15 15 16 17 17 16 17 16 16 16 16 15 15 15 15 14 14 14 14 14 12 15 14 13 12
17 18 19 23 24 24 23 24 24 24 22 21 22 22 19 17 16 15 16 16 15 14 14 14 15 14 14 16 16 17 17 16 16 16 16 15 15 14 14 14 14 14 14 14 14 14 13 13 13
17 20 23 23 23 23 23 23 22 23 22 21 20 23 21 16 15 16 15 16 15 14 14 14 15 15 16 13 15 16 16 15 15 16 15 15 14 14 14 14 14 14 14 14 14 14 13 13 13
20 21 23 23 24 23 23 23 22 22 22 22 20 21 21 16 14 14 15 14 15 14 14 14 15 14 14 13 14 15 15 15 15 15 15 15 15 13 14 13 13 13 13 14 13 13 13 13 13
21 23 23 23 23 23 23 21 22 23 23 23 20 21 20 16 15 15 15 13 14 13 14 14 14 15 14 13 14 14 15 14 15 15 15 15 14 14 13 13 13 12 13 13 13 13 13 13 13
20 23 23 23 23 23 23 22 22 22 23 18 18 22 21 16 16 15 14 14 13 13 13 14 14 13 13 13 13 13 14 14 14 14 14 13 15 14 13 14 12 13 13 12 12 13 13 13 13
19 22 23 23 22 23 23 22 22 20 20 19 18 18 17 16 16 13 12 12 12 13 13 13 13 13 13 12 13 13 13 13 12 13 13 14 12 15 13 13 13 13 12 12 12 12 12 12 12
20 22 23 24 24 23 23 23 22 20 22 21 19 16 15 15 13 13 13 12 12 12 13 13 13 13 13 12 12 13 12 12 11 12 12 13 12 13 11 13 12 12 12 12 12 12 12 12 12
20 22 24 22 22 22 22 22 21 22 23 23 21 18 15 14 13 12 12 12 11 12 12 12 12 12 12 12 13 12 12 10 11 12 11 12 12 10 12 12 12 12 11 11 11 11 11 10 10
20 21 22 22 22 21 22 21 21 21 21 18 18 16 15 14 13 12 12 11 11 11 12 12 12 12 11 11 11 12 11 10 10 10 11 12 10 11 12 11 10 10 10 10 10 10 10 10 10
20 22 22 21 21 20 21 21 22 21 20 17 16 15 14 13 12 12 11 11 11 11 12 12 10 11 10 11 11 11 10 10 9 9 10 12 12 12 12 11 11 11 11 10 10 10 10 10 10
21 21 22 21 21 21 20 22 19 22 20 17 16 16 13 13 12 11 11 11 11 11 12 11 10 10 10 10 10 10 10 10 9 9 10 11 13 12 12 11 11 10 11 11 11 10 10 10 10
20 20 22 22 21 22 20 21 21 22 18 17 16 15 14 13 12 11 11 11 11 11 11 11 10 10 10 10 10 10 9 9 9 9 10 11 13 13 12 12 12 11 11 10 11 10 10 10 10
20 21 21 23 23 21 20 21 24 20 18 18 17 15 14 13 13 12 10 10 10 11 11 10 11 10 10 10 10 9 9 9 9 9 11 13 13 13 12 11 11 10 12 11 12 11 10 10 10
20 21 21 22 22 22 20 22 22 18 19 19 17 16 14 14 13 11 10 10 10 10 11 10 10 10 10 10 9 9 9 9 9 10 10 12 12 12 12 12 11 12 12 12 11 12 10 10 10
20 20 21 21 22 20 22 22 24 22 19 19 19 17 16 14 14 11 11 10 10 10 10 10 10 10 10 9 9 9 9 9 9 9 9 11 12 11 11 12 13 12 11 10 11 12 11 10 10
21 21 21 22 22 20 21 22 23 24 20 20 20 18 16 15 13 11 10 9 9 10 10 10 10 10 10 9 9 9 9 9 9 9 10 11 12 12 11 13 12 12 10 11 11 12 11 11 10
19 20 21 22 21 20 22 22 24 24 23 22 21 19 18 15 13 11 9 8 9 9 10 10 10 10 10 10 9 9 9 9 9 10 10 10 11 11 12 12 12 12 11 12 11 12 12 11 12
19 19 20 20 20 21 20 21 23 24 22 21 20 20 19 16 14 11 10 9 9 9 9 10 10 10 10 10 9 8 9 8 9 10 10 11 11 11 11 11 11 11 11 11 11 11 12 10 11
18 20 20 20 19 20 20 20 23 23 23 23 22 19 19 17 15 13 11 10 9 9 9 9 10 10 10 10 9 9 9 9 9 9 10 11 11 11 10 11 11 11 11 11 11 11 11 11 10
19 20 19 19 19 19 20 20 23 23 22 23 24 22 19 17 15 14 12 11 10 9 9 9 9 9 10 10 9 9 9 9 8 8 10 11 11 10 10 10 11 11 10 11 11 11 11 12 11
19 18 18 19 19 18 20 20 22 23 23 23 24 23 21 18 16 15 13 12 11 9 9 8 8 9 9 9 9 9 8 8 8 9 9 10 10 9 10 10 10 10 11 11 11 10 10 11 11
18 18 17 17 17 18 21 20 21 23 23 24 23 23 21 19 17 15 14 13 12 10 9 8 8 8 9 9 9 9 9 9 9 10 11 10 10 10 9 9 10 10 11 11 11 10 11 11 11
18 19 19 17 18 19 20 19 21 23 24 23 22 22 21 19 17 16 15 14 12 11 10 9 9 9 8 9 9 8 9 10 9 10 10 10 10 10 10 10 10 10 11 11 11 10 10 11 10
17 17 20 18 17 19 20 20 21 23 23 24 23 22 21 20 18 17 15 14 13 11 11 10 10 10 9 8 10 9 9 9 9 9 10 10 11 11 11 10 10 11 11 11 11 9 9 10 9
19 20 17 17 17 17 20 19 20 22 23 23 23 23 21 19 18 17 16 14 13 12 11 10 10 10 10 9 9 9 9 8 9 9 9 10 10 10 10 10 11 10 11 10 9 9 9 9 9
18 18 18 19 19 18 18 20 21 22 23 22 23 22 21 20 18 17 16 15 13 12 12 12 11 11 10 9 9 9 9 9 9 9 9 9 9 9 9 10 10 10 10 9 9 9 9 9 10
20 19 19 17 17 18 18 20 20 21 23 21 22 22 21 20 20 18 17 15 14 13 12 11 11 10 10 10 10 9 9 9 9 10 10 10 10 9 9 9 9 9 9 9 9 9 9 10 11
Height
1515 1515 1516 1518 1512 1501 1493 1495 1498 1497 1499 1500 1501 1500 1495 1495 1492 1493 1490 1489 1490 1494 1497 1498 1499 1501 1504 1506 1509 1511 1514 1519 1524 1527 1528 1530 1527 1531 1538 1539 1543 1547 1549 1549 1551 1555 1556 1556 1559
1515 1516 1517 1513 1503 1495 1487 1493 1496 1495 1498 1500 1501 1499 1498 1492 1494 1494 1492 1489 1491 1494 1495 1497 1499 1502 1505 1508 1509 1511 1514 1519 1523 1527 1529 1533 1533 1532 1537 1542 1544 1548 1550 1552 1554 1555 1557 1560 1562
1514 1516 1514 1502 1496 1492 1490 1491 1493 1495 1497 1499 1498 1497 1496 1492 1494 1493 1491 1490 1492 1495 1497 1496 1499 1504 1506 1507 1508 1511 1513 1518 1523 1527 1530 1534 1535 1536 1537 1543 1546 1549 1552 1554 1556 1556 1559 1563 1564
1514 1517 1514 1501 1491 1489 1491 1490 1493 1493 1495 1497 1497 1494 1496 1493 1493 1492 1491 1490 1491 1495 1497 1497 1499 1505 1509 1507 1506 1509 1512 1519 1523 1526 1530 1534 1536 1539 1539 1543 1547 1551 1554 1556 1556 1558 1562 1566 1566
1514 1511 1500 1496 1490 1492 1492 1494 1496 1494 1495 1496 1498 1490 1494 1493 1491 1490 1490 1490 1490 1494 1497 1497 1500 1502 1501 1507 1500 1507 1510 1516 1522 1526 1530 1535 1537 1541 1541 1545 1548 1552 1556 1557 1559 1562 1565 1568 1568
1509 1506 1497 1490 1487 1491 1491 1493 1494 1493 1493 1493 1495 1492 1492 1490 1491 1490 1488 1489 1490 1492 1496 1498 1499 1501 1498 1501 1504 1507 1508 1513 1521 1526 1529 1534 1537 1542 1542 1547 1550 1555 1557 1560 1563 1564 1567 1568 1570
1504 1497 1490 1486 1486 1490 1489 1494 1493 1490 1488 1488 1492 1490 1490 1492 1489 1488 1488 1488 1488 1490 1493 1496 1497 1497 1499 1505 1507 1502 1508 1513 1521 1526 1529 1532 1538 1541 1543 1548 1553 1556 1560 1563 1565 1566 1569 1570 1572
1503 1497 1490 1488 1487 1487 1488 1492 1491 1490 1486 1488 1490 1483 1485 1489 1487 1487 1486 1486 1486 1488 1490 1492 1495 1497 1501 1505 1506 1506 1507 1514 1519 1525 1528 1532 1537 1540 1545 1548 1554 1558 1563 1566 1568 1568 1570 1573 1574
1504 1495 1486 1482 1486 1484 1486 1489 1487 1489 1487 1487 1486 1485 1486 1485 1484 1485 1485 1484 1484 1485 1487 1490 1493 1497 1498 1501 1505 1508 1511 1514 1518 1524 1529 1532 1537 1541 1548 1550 1556 1561 1566 1569 1570 1571 1573 1574 1576
1498 1488 1479 1479 1481 1483 1484 1484 1484 1487 1480 1481 1482 1482 1481 1482 1482 1483 1484 1483 1482 1481 1483 1485 1489 1492 1494 1496 1500 1505 1508 1511 1513 1524 1531 1533 1539 1543 1549 1551 1558 1564 1568 1571 1572 1574 1574 1575 1577
1491 1483 1476 1482 1482 1485 1483 1482 1483 1480 1475 1474 1476 1479 1479 1479 1481 1480 1481 1479 1480 1479 1480 1483 1485 1488 1490 1491 1493 1500 1505 1505 1516 1522 1526 1535 1542 1545 1549 1553 1560 1566 1569 1571 1573 1575 1577 1579 1580
1488 1484 1480 1480 1482 1483 1482 1481 1479 1478 1475 1475 1477 1477 1477 1477 1479 1480 1478 1477 1477 1478 1479 1480 1479 1480 1482 1482 1492 1494 1501 1510 1511 1526 1527 1534 1541 1544 1549 1553 1560 1565 1570 1571 1573 1576 1578 1580 1582
1485 1479 1477 1480 1480 1481 1480 1479 1475 1473 1474 1474 1475 1474 1475 1475 1478 1477 1476 1475 1475 1475 1475 1474 1471 1471 1475 1483 1482 1488 1496 1508 1513 1520 1529 1535 1540 1545 1549 1554 1561 1566 1571 1572 1574 1576 1578 1580 1581
1476 1478 1474 1475 1475 1476 1477 1471 1475 1467 1469 1471 1472 1473 1472 1473 1476 1476 1475 1473 1474 1474 1474 1474 1475 1474 1477 1479 1487 1489 1499 1507 1513 1522 1529 1537 1542 1544 1549 1553 1560 1564 1568 1571 1574 1576 1579 1581 1582
1477 1477 1471 1469 1469 1469 1473 1467 1464 1463 1467 1468 1469 1471 1472 1471 1473 1474 1474 1472 1472 1473 1474 1476 1477 1479 1479 1485 1491 1493 1499 1506 1511 1520 1529 1536 1540 1544 1549 1554 1558 1563 1566 1569 1573 1576 1579 1581 1582
1474 1471 1468 1456 1461 1465 1471 1460 1450 1461 1465 1464 1465 1468 1469 1469 1471 1473 1470 1471 1471 1472 1474 1476 1478 1480 1483 1486 1490 1496 1501 1507 1513 1519 1528 1534 1539 1543 1548 1552 1558 1562 1564 1568 1571 1574 1577 1579 1582
1468 1462 1459 1456 1460 1460 1464 1454 1455 1461 1461 1459 1462 1464 1467 1468 1469 1470 1468 1469 1470 1472 1473 1476 1478 1481 1484 1487 1492 1496 1502 1507 1513 1521 1528 1534 1538 1543 1548 1551 1556 1559 1564 1567 1570 1572 1575 1577 1580
1459 1461 1454 1456 1454 1459 1454 1453 1447 1452 1456 1456 1457 1460 1463 1465 1466 1466 1465 1466 1468 1470 1473 1475 1479 1480 1485 1489 1493 1499 1504 1510 1516 1521 1528 1533 1538 1544 1548 1551 1554 1558 1563 1567 1568 1570 1573 1576 1578
1450 1452 1451 1445 1451 1457 1452 1446 1443 1442 1450 1451 1451 1454 1458 1461 1463 1463 1463 1463 1466 1468 1471 1474 1478 1480 1484 1488 1493 1498 1502 1509 1516 1520 1526 1531 1536 1541 1546 1548 1553 1558 1561 1564 1566 1569 1571 1573 1576
1455 1453 1449 1445 1452 1454 1445 1441 1437 1436 1441 1442 1445 1448 1451 1457 1459 1460 1461 1462 1463 1466 1469 1473 1476 1478 1483 1487 1493 1499 1503 1508 1515 1521 1524 1529 1534 1539 1544 1547 1552 1556 1559 1562 1564 1566 1568 1571 1573
1450 1451 1448 1450 1451 1448 1448 1442 1434 1430 1436 1439 1441 1442 1446 1450 1453 1456 1458 1459 1460 1462 1466 1469 1473 1477 1481 1486 1491 1496 1502 1508 1512 1517 1522 1526 1532 1537 1542 1546 1549 1553 1556 1559 1561 1563 1565 1567 1568
1449 1444 1449 1450 1455 1449 1444 1446 1426 1425 1427 1429 1432 1437 1440 1444 1448 1452 1455 1456 1458 1459 1463 1467 1470 1474 1479 1483 1487 1491 1493 1500 1506 1512 1517 1522 1528 1533 1539 1543 1546 1550 1553 1555 1558 1560 1562 1564 1566
1441 1441 1448 1449 1450 1449 1441 1445 1423 1422 1426 1421 1421 1427 1433 1439 1444 1447 1450 1453 1455 1457 1460 1464 1467 1470 1474 1479 1484 1488 1493 1499 1507 1510 1513 1519 1523 1530 1535 1539 1543 1547 1549 1551 1554 1556 1558 1559 1562
1440 1445 1447 1447 1446 1453 1439 1440 1423 1415 1419 1417 1419 1422 1427 1432 1437 1442 1446 1450 1453 1455 1457 1461 1463 1467 1471 1476 1480 1485 1491 1496 1502 1506 1509 1514 1520 1526 1531 1535 1540 1543 1545 1547 1550 1553 1555 1554 1556
1440 1442 1450 1454 1452 1446 1426 1436 1423 1411 1413 1414 1417 1418 1422 1426 1431 1436 1440 1443 1447 1450 1453 1455 1459 1463 1465 1469 1475 1480 1485 1490 1495 1500 1505 1509 1515 1520 1525 1531 1534 1537 1542 1544 1546 1548 1548 1548 1549
1429 1429 1428 1445 1439 1431 1429 1433 1418 1409 1411 1415 1416 1415 1418 1421 1426 1429 1434 1440 1442 1444 1448 1452 1455 1458 1460 1464 1470 1477 1481 1484 1491 1497 1501 1505 1508 1514 1521 1525 1528 1532 1536 1538 1541 1541 1541 1541 1543
1427 1427 1418 1430 1433 1428 1421 1418 1413 1408 1408 1410 1411 1412 1413 1416 1420 1425 1431 1434 1438 1440 1442 1445 1451 1455 1457 1460 1464 1468 1474 1479 1485 1491 1495 1499 1504 1509 1514 1518 1522 1525 1528 1530 1532 1533 1534 1535 1535
1417 1416 1432 1430 1437 1439 1418 1421 1418 1409 1406 1406 1407 1409 1410 1413 1416 1421 1426 1429 1433 1436 1440 1443 1445 1449 1454 1456 1458 1461 1467 1473 1480 1485 1487 1491 1497 1502 1506 1510 1513 1517 1519 1522 1524 1525 1526 1527 1527
1417 1417 1417 1411 1416 1423 1427 1416 1407 1407 1404 1407 1408 1408 1409 1411 1414 1417 1421 1426 1429 1433 1434 1437 1440 1444 1447 1450 1455 1457 1459 1463 1469 1473 1478 1482 1489 1493 1496 1500 1504 1508 1511 1514 1516 1516 1517 1517 1516
1402 1407 1410 1416 1421 1420 1419 1413 1405 1408 1405 1409 1408 1408 1409 1409 1411 1413 1415 1420 1423 1426 1429 1430 1434 1437 1440 1444 1447 1451 1456 1458 1459 1462 1466 1472 1475 1482 1486 1490 1495 1498 1500 1503 1504 1505 1505 1505 1506
Wind_Speed
7 6 3 3 6 6 4 5 3 5 3 1 5 7 7 11 7 10 4 7 10 20 21 31 33 33 34 34 32 29 34 31 31 30 29 28 29 26 26 22 21 21 20 21 20 21 24 24 25
8 6 3 4 7 7 5 1 6 3 4 5 5 8 9 10 6 7 6 8 9 20 25 29 33 30 28 31 29 34 34 32 33 32 30 29 28 28 25 23 21 20 19 20 22 23 23 24 25
9 7 8 4 5 7 4 3 3 3 5 7 4 6 6 3 3 2 5 8 13 19 22 27 31 26 28 29 34 34 32 32 33 31 30 30 27 26 25 23 21 19 20 22 23 23 24 24 24
6 5 5 8 8 2 4 1 2 5 2 5 7 8 5 6 1 3 7 10 14 18 23 26 32 25 23 31 35 34 32 31 34 32 31 30 27 27 25 24 22 21 22 24 25 26 25 24 24
7 5 7 11 8 3 4 5 5 5 4 3 5 9 6 3 8 7 8 11 17 20 21 25 30 29 28 26 33 33 32 35 36 33 32 28 27 26 25 24 24 23 25 26 26 26 25 24 24
9 6 8 10 10 6 4 3 4 7 7 6 8 12 8 6 3 7 10 9 16 21 22 22 30 29 32 34 34 34 32 35 37 35 32 29 27 27 26 26 26 23 25 26 26 27 26 26 25
14 8 12 10 7 7 4 1 8 9 10 11 6 8 5 2 4 8 9 10 13 19 21 23 34 31 30 31 31 32 34 37 36 35 33 30 28 29 29 28 27 26 28 28 28 28 27 26 24
12 6 10 11 11 12 4 5 7 11 12 3 5 7 6 3 6 9 11 11 13 20 24 24 31 32 33 31 27 28 30 37 37 36 35 33 30 30 29 27 28 30 29 28 27 27 25 24 22
9 9 11 12 14 10 3 6 6 8 13 9 8 9 6 10 13 7 6 9 14 17 24 27 30 36 32 29 30 29 29 31 36 36 34 35 33 30 27 30 31 31 29 28 26 25 24 23 22
14 12 15 6 10 7 8 9 10 6 11 13 13 12 10 9 7 7 8 8 13 15 17 23 35 38 41 35 34 31 32 36 37 36 34 31 32 31 29 33 31 30 29 26 23 23 23 22 22
15 18 12 8 13 8 12 12 4 10 13 13 13 8 7 4 4 5 6 9 11 10 14 15 25 36 49 44 42 35 35 37 38 36 37 35 31 31 33 33 31 31 28 25 24 22 17 16 16
14 20 17 12 9 11 11 12 12 14 18 9 7 5 6 5 4 6 6 8 8 9 9 15 24 29 28 42 40 43 43 40 38 35 36 36 35 36 34 29 28 28 25 24 22 18 16 16 15
19 18 15 18 16 15 14 17 17 18 14 11 7 6 6 4 4 5 5 7 8 8 4 6 15 34 40 37 46 47 37 42 45 43 36 35 37 37 36 28 28 26 23 23 20 17 17 16 15
7 21 20 17 18 17 14 19 5 16 8 12 10 8 7 5 5 4 5 7 8 9 4 6 16 22 20 37 36 35 43 45 41 41 37 40 37 36 36 32 26 25 24 21 18 18 16 14 14
15 15 15 17 18 18 11 18 17 16 9 11 12 10 8 5 5 5 5 7 8 10 8 13 15 17 21 25 23 37 44 42 39 38 44 41 38 36 35 32 29 23 21 21 19 19 15 14 14
14 14 15 12 11 9 11 17 3 5 10 12 12 12 10 8 7 7 10 8 9 11 14 21 19 15 15 21 26 35 42 45 41 37 38 39 38 38 37 34 25 22 25 22 22 20 16 14 13
13 15 16 12 8 4 12 11 7 5 10 11 12 13 12 10 9 8 8 11 13 14 17 27 19 17 18 19 30 34 38 43 44 40 34 38 33 31 31 30 30 28 28 26 24 20 17 16 14
17 15 15 14 7 10 13 15 14 6 10 12 13 14 15 13 12 10 8 12 13 15 19 30 26 18 23 25 30 31 34 40 42 38 30 40 38 37 37 34 32 30 28 21 22 21 18 14 13
13 14 15 7 4 5 14 15 13 7 9 12 14 15 16 15 12 11 9 10 15 16 21 20 20 22 28 32 33 35 36 35 47 39 38 40 41 41 38 34 31 31 25 22 23 21 19 18 16
17 16 14 8 5 11 15 15 14 11 8 10 13 15 17 16 16 15 13 12 17 18 22 22 21 19 30 31 34 32 40 35 41 40 37 38 38 35 36 35 32 31 28 26 22 21 20 17 18
21 19 16 13 3 11 11 16 18 12 7 8 10 12 17 19 20 18 17 15 19 23 23 25 22 23 29 28 33 33 38 36 36 43 41 42 36 36 36 34 33 31 29 27 23 23 19 17 17
20 20 17 14 8 9 3 13 14 9 16 10 10 14 17 21 20 20 19 19 20 24 24 25 28 27 26 28 37 35 46 49 34 40 45 51 39 34 39 35 34 32 29 25 22 21 19 17 14
20 10 12 16 11 11 15 9 14 5 12 11 10 13 16 21 22 23 22 20 20 21 25 25 28 30 29 28 38 39 44 47 31 34 42 46 41 35 41 37 34 32 27 26 22 20 19 20 19
7 7 8 9 10 12 13 11 9 3 4 2 4 3 11 20 24 23 22 20 20 21 23 24 24 27 32 31 35 38 36 41 33 37 40 42 45 41 41 36 37 32 30 27 27 26 26 24 23
15 12 6 8 8 11 7 9 15 5 8 10 7 7 7 19 25 26 27 26 24 24 23 24 26 26 30 33 38 40 41 45 43 44 45 43 46 43 51 43 42 39 35 37 34 32 30 28 27
24 21 7 10 10 8 9 7 4 4 2 5 10 10 7 17 24 28 28 27 26 27 26 26 26 27 29 35 38 37 41 45 43 45 41 42 46 49 47 46 42 44 40 38 42 36 30 33 30
16 17 14 6 2 4 9 8 9 11 10 5 8 4 5 15 21 25 27 27 27 28 29 29 27 27 29 32 38 39 39 41 38 40 44 46 46 46 46 47 48 46 45 38 42 36 31 32 31
11 12 11 10 13 10 7 10 6 8 5 3 3 10 1 9 18 22 26 26 26 26 27 27 27 28 29 30 33 36 39 38 39 37 40 47 46 47 44 47 51 46 45 44 37 38 35 33 33
13 10 9 8 13 11 7 5 6 11 5 0 7 10 3 5 14 19 23 25 25 25 28 29 30 29 30 31 32 34 39 40 44 42 43 44 44 46 44 46 46 42 40 39 38 37 35 34 39
18 20 18 9 11 8 10 10 6 5 5 4 8 9 5 3 8 14 20 24 27 28 29 31 31 31 32 32 32 34 34 36 41 45 46 48 56 49 49 52 47 45 44 45 44 46 42 47 43
Wind_Direction
176 159 163 222 236 243 213 190 333 245 236 249 293 252 292 308 278 314 293 286 190 183 182 182 182 187 189 190 184 192 184 186 179 176 171 166 158 157 160 158 157 155 147 143 147 140 137 135 135
174 170 204 241 254 233 174 178 230 284 293 292 268 250 256 283 258 287 309 257 188 184 183 189 193 197 196 187 197 188 186 182 182 177 173 169 162 159 162 161 160 159 156 149 143 139 135 137 140
176 183 245 244 250 263 268 161 267 269 262 244 248 255 294 280 254 260 268 212 185 189 189 191 195 190 189 202 192 185 182 185 185 181 176 171 167 166 163 164 161 162 156 147 141 139 136 141 144
166 200 230 243 235 218 245 79 325 278 162 216 256 261 244 248 265 215 247 234 190 194 195 204 193 194 202 200 186 187 180 187 187 183 178 175 172 169 164 162 159 157 150 146 145 141 138 136 133
186 235 241 239 235 233 229 273 294 285 312 263 255 278 284 279 242 258 259 241 213 198 200 207 201 209 241 216 187 186 186 189 187 184 179 176 172 171 162 158 152 150 150 147 142 136 133 132 129
201 258 238 236 207 204 246 245 280 263 272 268 258 275 284 250 239 253 260 249 229 212 211 208 205 218 213 205 200 203 197 190 188 185 181 180 176 169 159 153 148 154 150 140 137 134 134 132 130
248 231 257 267 233 231 226 212 276 294 288 266 241 264 285 266 261 258 259 254 234 217 217 217 214 217 193 202 208 200 193 187 187 185 183 177 174 168 159 155 158 164 146 139 136 133 131 130 128
242 259 253 235 222 232 173 262 273 274 294 254 226 261 271 215 288 279 271 253 245 217 218 212 214 205 207 207 201 190 188 186 185 184 180 171 173 171 167 161 160 153 148 143 137 133 131 128 126
220 242 245 237 226 226 198 278 292 278 265 241 239 256 262 281 296 293 277 256 227 230 223 215 206 210 208 197 194 192 191 189 185 181 175 169 167 172 162 159 157 153 151 147 142 136 131 126 123
219 232 249 249 226 242 268 292 318 256 254 254 253 252 258 278 292 286 274 241 240 225 225 215 212 205 203 200 196 203 199 190 179 177 167 168 170 164 160 156 158 158 153 150 143 141 134 130 130
220 245 243 232 227 274 282 290 266 274 280 278 273 251 219 247 275 279 268 252 244 229 208 211 216 219 216 214 216 211 193 175 177 177 177 171 172 160 159 157 160 162 159 156 150 147 134 145 143
242 237 248 244 242 251 259 294 274 270 278 281 264 216 204 243 262 277 267 251 247 205 219 249 249 249 208 210 211 195 187 175 168 175 168 173 172 163 159 155 160 164 164 162 159 153 157 151 151
233 247 241 247 252 252 271 266 279 274 272 256 229 201 205 232 253 272 258 236 208 237 281 247 240 236 230 202 181 175 181 177 171 174 170 178 175 167 160 155 160 165 171 166 165 166 158 154 150
242 237 249 249 249 252 256 275 269 267 249 230 220 214 211 216 240 252 247 237 218 224 177 179 192 189 187 198 189 190 186 189 191 177 175 181 177 173 172 164 165 170 170 169 169 165 163 158 157
252 251 240 238 246 251 262 262 240 273 208 225 221 208 211 223 221 232 239 244 215 208 195 183 168 181 166 176 186 181 181 172 174 172 176 180 180 179 185 177 173 170 168 168 166 168 165 168 165
232 241 250 243 231 231 218 263 247 175 204 222 218 212 211 218 216 218 228 222 223 230 200 195 183 188 195 194 192 191 180 179 176 170 179 182 179 184 185 182 175 175 176 173 181 174 173 174 176
218 245 222 244 209 208 217 273 110 188 221 233 223 218 211 211 216 215 217 206 207 197 196 196 195 206 204 196 180 185 183 176 177 169 181 178 179 188 190 190 184 179 178 181 182 178 180 181 178
231 232 247 246 158 220 231 251 270 206 232 229 225 221 216 210 213 214 221 201 214 214 200 208 210 214 197 184 178 178 182 184 182 177 180 183 179 191 193 192 190 184 186 185 184 185 187 184 183
270 249 252 231 162 254 249 261 271 272 218 223 223 223 218 214 205 204 212 207 201 202 198 196 202 216 193 188 180 181 183 184 185 184 187 190 189 191 192 194 192 193 192 194 193 195 199 196 196
234 240 235 240 269 231 256 253 269 270 250 235 221 223 218 204 200 200 201 194 191 189 196 201 213 202 199 196 191 185 189 187 189 188 192 194 198 195 199 198 196 200 202 207 204 208 212 209 213
227 234 243 255 191 245 273 264 256 239 236 234 224 222 213 208 198 198 196 194 190 193 194 201 205 203 198 202 198 195 191 188 190 196 196 195 202 200 204 203 202 202 209 211 212 219 226 215 226
230 228 250 253 254 257 198 275 268 253 270 225 222 208 206 204 202 196 195 194 194 197 198 195 201 203 204 210 197 199 193 194 192 198 198 206 211 208 208 209 209 211 214 217 226 229 233 233 234
237 234 239 239 247 267 249 258 267 226 260 243 229 205 210 203 199 195 196 198 195 191 195 195 208 206 204 211 203 206 199 202 201 204 201 202 215 213 209 213 215 219 218 218 227 238 240 249 243
255 209 221 226 238 242 239 246 279 234 205 221 239 229 208 198 195 195 193 192 196 194 191 192 195 204 205 207 206 211 201 202 209 206 206 208 208 207 209 214 220 221 220 224 234 246 241 244 254
208 201 207 210 208 236 209 234 245 239 268 288 275 287 207 196 193 193 191 192 191 196 196 193 194 197 204 205 206 206 204 199 212 209 208 214 210 213 213 216 217 219 234 240 243 243 245 254 261
202 195 200 204 214 226 167 238 225 263 307 267 288 293 230 196 197 195 195 195 194 193 194 197 196 196 198 203 206 207 207 208 214 212 214 211 208 211 214 215 222 224 236 239 245 249 251 260 262
196 221 238 274 3 253 203 235 265 247 257 251 324 299 218 197 197 200 198 197 198 198 197 196 197 197 198 199 206 209 209 211 212 213 215 211 212 216 218 221 225 230 235 246 245 246 251 259 259
203 198 206 221 229 228 215 245 241 193 294 354 29 17 5 185 189 198 203 203 202 203 203 202 200 200 201 201 201 204 208 213 212 214 215 215 216 218 221 223 226 233 240 243 241 245 251 254 255
203 204 228 242 228 240 239 226 164 249 284 206 352 356 10 191 190 194 201 206 207 206 206 208 207 204 204 206 207 207 208 209 211 216 218 218 219 221 225 228 232 236 239 237 239 245 250 249 258
226 216 213 219 194 238 256 250 136 264 295 304 318 339 347 213 208 200 198 200 205 208 208 210 210 210 209 209 209 212 214 213 215 219 220 220 222 226 227 229 232 235 236 239 241 245 248 255 259